Regional Weather Roundup
Issued by NWS

Home | Current Version | Previous Version | Text Only | Print | Product List | Glossary On
Versions: 1 2 3 4 5 6 7 8 9 10 11 12 13 14 15 16 17 18 19 20 21 22 23 24 25 26 27
000
ASUS45 KREV 291410
RWRNV
NEVADA REGIONAL WEATHER ROUNDUP
NATIONAL WEATHER SERVICE RENO NV
700 AM PDT SAT APR 29 2017

NOTE: "FAIR" INDICATES FEW OR NO CLOUDS BELOW 12,000 FEET WITH NO
SIGNIFICANT WEATHER AND/OR OBSTRUCTIONS TO VISIBILITY.

NVZ001-003-004-291500-
WESTERN NEVADA

CITY           SKY/WX    TMP DP  RH WIND       PRES   REMARKS
RENO           CLEAR     37  20  50 CALM      30.27R
CARSON CITY    FAIR      32  19  59 CALM      30.28R
MINDEN         FAIR      25  18  74 CALM      30.29R
FALLON         SUNNY     35  21  56 CALM      30.27R
LOVELOCK       SUNNY     28  19  69 SE3       30.27R
HAWTHORNE      SUNNY     36  18  48 CALM      30.27R
$$

NVZ002-CAZ072-073-291500-
NORTHERN AND CENTRAL SIERRA

CITY           SKY/WX    TMP DP  RH WIND       PRES   REMARKS
S. LAKE TAHOE  PTCLDY    29  16  58 CALM      30.22R
TRUCKEE        CLEAR     25  16  68 CALM      30.23S
SQUAW VLY 8000   N/A     28  18  64 E5          N/A
SUSANVILLE     CLEAR     32  25  74 NW3       30.27R
MAMMOTH LAKES  FAIR      22  14  69 W10       30.26R
BRIDGEPORT       N/A     22  14  71 CALM      30.24R
$$

NVZ030-031-036-291500-
NORTHERN NEVADA

CITY           SKY/WX    TMP DP  RH WIND       PRES   REMARKS
ELKO           SUNNY     32  25  75 CALM      30.24R
WINNEMUCCA     SUNNY     26  23  88 SE5       30.27R
WENDOVER       SUNNY     43  24  47 NW16      30.19R
$$

NVZ035-037-291500-
CENTRAL NEVADA

CITY           SKY/WX    TMP DP  RH WIND       PRES   REMARKS
ELY            SUNNY     32  19  58 N13       30.18R
EUREKA           N/A     26  21  81 S3        30.23R
$$

NVZ013-014-291500-
SOUTH CENTRAL NEVADA

CITY           SKY/WX    TMP DP  RH WIND       PRES   REMARKS
TONOPAH        SUNNY     38  32  79 NW12G23   30.22R
$$

NVZ017-020-022-291500-
SOUTHERN NEVADA

CITY           SKY/WX    TMP DP  RH WIND       PRES   REMARKS
LAS VEGAS      SUNNY     58  17  20 NW16      30.06R
N. LAS VEGAS   SUNNY     56  20  24 N16       30.06R
NELLIS AFB     SUNNY     56  22  26 W17       30.07R
HENDERSON      SUNNY     56  20  24 N15       30.09R
MERCURY        SUNNY     50  21  32 NE9G18    30.13R
$$




USA.gov is the U.S. government's official web portal to all federal, state and local government web resources and services.